Hourly Data Report for June 03, 2021

ATIKOKAN (AUT)
ONTARIO
Current Station Operator: ECCC - MSC

48°45'40.000" N
91°37'41.000" W
389.30 m
6020LPQ
71747
WCH

Download Data

Hourly Data (June 2021)
Hourly Data Report for June 3, 2021
TIME
LST
Temp Definition
°C
Dew Point Definition
°C
Rel Hum Definition
%
Precip. Amount Definition
mm

Wind Dir Definition
10's deg

Wind Spd Definition
km/h
Visibility Definition
km
Stn Press Definition
kPa
Hmdx Definition


Wind Chill Definition


Weather Definition


00:00 13.5 10.5 82 0.0 0 1   96.07     LegendNANA
01:00 12.9 10.4 85 0.0 28 1   96.02     LegendNANA
02:00 13.2 10.8 85 0.0 26 2   95.98     LegendNANA
03:00 13.1 11.6 91 0.0 18 1   95.96     LegendNANA
04:00 11.8 10.6 92 0.0   0   95.96     LegendNANA
05:00 12.5 11.7 95 0.0 7 1   95.96     LegendNANA
06:00 13.6 12.8 94 0.5 36 2   96.10     LegendNANA
07:00 15.1 13.4 90 0.1 24 2   96.09     LegendNANA
08:00 15.9 14.1 89 0.3 24 5   96.09     LegendNANA
09:00 18.9 14.4 75 0.0 23 2   96.01     LegendNANA
10:00 21.3 15.0 67 0.0 25 7   96.01 25   LegendNANA
11:00 22.5 12.2 52 0.0 27 6   96.03 25   LegendNANA
12:00 23.5 12.3 49 0.0 27 11   96.04 26   LegendNANA
13:00 24.2 12.7 49 0.0 25 10   96.02 27   LegendNANA
14:00 25.5 13.5 48 0.0 33 5   96.02 29   LegendNANA
15:00 25.3 11.3 41 0.0 36 5   96.01 27   LegendNANA
16:00 26.7 11.5 39 0.0 27 6   96.00 29   LegendNANA
17:00 26.7 11.3 38 0.0 33 7   96.01 29   LegendNANA
18:00 26.8 10.9 37 0.0 31 6   96.02 29   LegendNANA
19:00 24.3 11.9 46 0.0 28 2   96.04 27   LegendNANA
20:00 19.0 13.3 69 0.0   0   96.09     LegendNANA
21:00 16.3 13.8 85 0.0   0   96.14     LegendNANA
22:00 14.8 13.7 93 0.0   0   96.16     LegendNANA
23:00 13.8 13.1 95 0.0   0   96.15     LegendNANA

Notes on Data Quality.

Legend

  • E = Estimated
  • M = Missing
  • NA = Not Available*
  • [empty] = Indicates an unobserved value
Date modified: